星链-30869 (STARLINK-30869 )

导读

STARLINK-30869是美国太空探索技术公司(SpaceX)星链互联网卫星组网中的一颗卫星,于2023年11月28日在美国发射升空,属于星链项目批量部署的卫星之一,加入近地轨道星座,为全球范围内提供低延迟、高速率的卫星互联网服务,推动星链全球组网进程,拓展太空互联网覆盖范围。

基本信息
目录编号:
58437
目录名称:
STARLINK-30869
国际标识:
2023-183A
轨道中心:
EARTH
卫星名称:
星链-30869
卫星全名:
星链-30869 (STARLINK-30869 )
卫星状态:
在轨 (已飞行933 天)
发射日期:
2023-11-28 UTC
国别 :
美国 (US)
星等 :
--
轨道信息
数据来源 国际轨道数据
星历时间: 2026-06-17T03:37:07+0800
1天前
查看轨道信息
半长轴: 6861.191km
偏心率: 0.0001427
轨道倾角: 43.002°
近地点辐角 288.846°
升交点赤经 201.889°
平近点角 71.224°
近地点: 482.074km
远地点: 484.034km
周期: 94.267分钟
每日圈数: 15.275785
详细信息
固有亮度:
5
最大亮度:
0.3
卫星平台:
Starlink v2.0 mini
覆盖范围:
全球
运营商:
太空探索技术公司
运营商所在国:
美国
制造商(研发单位):
太空探索技术公司
制造商所在国:
美国
使用方式:
暂无
卫星简介
星链(Starlink)计划是由太空探索技术公司(SpaceX)提出的一个巨型低轨卫星互联网星座项目,计划在2019年至2024年间在太空搭建由约1.2万颗卫星组成的“星链”网络,其中1584颗将部署在地球上空550千米处的近地轨道,并从2020年开始工作。该卫星仍在工作。
2D轨道图
3D轨道图
轨道高度分析图
轨道倾角分析图
轨道综合分析图
查看轨道综合分析图